Theta_e
306 306 307 309 310 308 307 307 306 310 310 309 310 309 313 310 312 313 311 312 313 313 312 313 313 313 313 312 310 310 313 313 313 313 313 312 314 314 313 313 313 313 314 315 314
307 306 306 306 307 307 307 307 306 311 311 310 312 309 312 313 314 313 312 312 313 313 313 313 313 313 312 312 310 311 312 312 311 312 313 313 314 313 313 314 314 314 313 313 313
309 306 306 305 306 306 307 306 308 311 312 312 307 308 315 316 314 313 313 313 313 313 313 313 313 313 313 312 312 312 314 312 313 311 312 314 313 314 313 314 314 314 313 313 313
315 307 307 308 307 307 307 309 312 312 312 313 307 311 316 317 317 313 313 313 313 314 314 314 314 314 314 314 312 314 313 312 313 314 314 314 313 314 314 314 314 313 313 313 314
314 313 307 311 311 311 313 313 313 312 312 313 309 315 316 314 314 313 313 313 313 313 313 314 314 314 315 314 313 313 314 314 314 314 314 314 313 313 314 314 314 314 314 313 313
314 315 307 311 313 314 314 312 312 312 312 313 312 312 314 314 314 313 313 313 313 313 313 313 314 314 314 314 315 314 314 314 314 314 314 313 314 311 313 314 314 313 314 314 313
314 315 314 307 313 314 315 312 311 312 312 313 315 315 315 315 315 316 315 314 314 314 314 314 313 314 314 315 313 314 315 315 314 314 315 312 315 314 314 315 315 315 316 315 316
314 315 315 308 312 314 311 310 312 313 313 313 314 314 315 315 315 314 314 314 315 315 314 314 314 313 314 314 315 315 314 316 315 315 315 315 316 316 316 315 316 317 316 316 317
314 315 315 308 313 311 310 310 312 313 313 314 314 314 315 313 314 314 314 314 314 314 315 315 314 313 314 315 316 316 317 316 316 315 315 316 316 316 316 315 316 317 316 316 316
314 314 310 309 313 311 309 312 312 314 313 313 313 313 314 314 313 313 314 314 314 314 315 313 313 315 315 315 317 316 316 316 316 316 316 316 316 316 315 315 316 316 316 316 316
314 311 308 311 314 310 310 313 315 314 315 314 314 313 315 313 313 313 313 313 313 314 314 313 314 314 314 314 313 314 315 316 316 315 316 316 316 316 316 315 316 316 316 316 316
315 311 311 312 310 310 312 311 312 315 315 315 315 313 313 312 313 313 312 311 313 313 312 312 312 312 313 313 313 314 316 316 315 315 315 316 317 316 316 317 316 316 316 316 316
314 312 312 312 312 313 314 314 313 314 315 314 316 312 312 312 313 313 312 311 312 312 312 313 313 312 313 314 314 314 317 318 316 316 316 317 319 318 317 317 316 316 316 316 316
314 315 314 313 312 313 313 313 316 314 314 313 311 312 313 312 313 312 312 311 312 312 313 315 313 313 313 314 314 317 316 317 317 318 318 317 322 318 318 318 317 317 317 316 316
315 314 315 315 314 314 314 316 316 317 318 313 311 312 313 313 312 312 312 312 312 312 314 312 313 313 314 314 314 316 316 315 315 317 316 316 319 316 316 317 317 317 317 316 316
316 313 316 317 316 316 314 316 316 317 317 314 312 314 315 314 312 312 312 312 310 314 315 315 313 313 314 314 315 316 314 315 315 315 317 317 317 316 316 317 318 318 317 316 316
317 317 317 317 316 315 315 316 318 317 314 315 315 316 314 314 312 312 313 313 313 316 313 313 313 313 313 314 313 314 316 319 320 318 319 316 317 317 317 317 317 318 317 316 316
314 317 317 318 316 316 315 316 316 314 316 315 317 317 315 312 314 312 313 313 311 312 316 315 315 313 313 312 314 314 315 318 321 319 317 315 316 315 315 315 315 315 315 316 316
308 317 317 317 317 316 315 318 316 316 316 319 318 315 313 313 313 312 314 313 312 315 315 316 313 312 312 313 313 316 318 315 318 317 317 315 315 315 315 315 316 316 315 316 315
307 315 316 317 316 316 317 316 315 313 317 318 319 315 315 316 314 315 314 313 313 313 314 314 316 312 313 312 314 315 314 320 318 320 318 315 315 315 315 315 315 316 317 316 317
307 316 317 316 314 315 319 317 316 316 317 319 318 317 315 315 314 315 315 313 311 312 314 314 316 313 312 314 315 315 318 316 317 319 319 317 315 315 315 316 316 315 316 315 315
308 315 314 309 315 312 316 315 315 317 317 317 315 315 316 316 314 314 315 312 312 312 313 313 316 314 313 313 314 315 316 316 319 318 318 317 317 314 315 316 315 314 313 313 313
313 312 311 312 314 314 313 312 314 316 316 317 317 316 315 315 316 313 314 312 313 312 314 313 314 316 314 313 314 315 313 313 315 316 316 318 317 314 314 314 314 313 312 311 311
309 314 311 311 311 312 313 313 313 314 314 314 313 314 315 316 314 315 314 313 311 311 312 314 314 315 315 314 315 314 315 314 314 315 315 316 316 315 314 314 314 312 312 312 311
308 312 311 313 310 312 312 312 313 314 312 310 313 313 312 312 312 313 312 313 313 312 313 314 317 315 314 313 312 314 314 314 313 314 316 314 314 314 314 314 313 312 311 310 310
309 310 309 309 310 312 311 312 313 313 311 310 311 312 311 310 311 312 313 313 313 312 313 311 313 313 313 312 312 313 313 313 314 313 315 315 315 313 311 310 309 309 308 308 308
305 306 308 308 309 310 311 311 310 308 309 310 309 309 309 310 311 311 311 312 313 312 312 310 313 313 314 312 313 314 313 313 313 311 312 312 312 310 310 309 308 306 306 306 306
Wind_Speed
23 20 17 14 13 11 12 13 14 14 15 14 14 11 9 13 16 17 16 13 13 11 7 8 6 6 9 7 5 3 2 3 2 3 1 8 9 10 9 11 13 11 12 12 12
23 20 17 15 12 10 10 11 12 13 15 13 13 7 6 10 16 18 13 10 11 11 11 13 11 7 6 5 4 3 1 2 1 4 5 9 10 13 8 9 11 17 15 15 11
26 20 18 16 13 11 11 11 12 13 14 14 12 6 7 9 9 10 11 11 11 13 12 16 10 5 6 4 4 1 2 1 8 4 4 13 15 8 10 8 9 13 12 8 12
30 21 17 15 13 12 12 12 13 15 13 13 11 9 9 6 4 4 8 10 10 10 11 12 15 4 3 4 0 4 4 5 5 16 16 15 14 14 18 18 16 14 15 18 13
31 24 15 14 13 12 12 12 13 15 12 10 10 9 9 11 7 6 5 5 6 8 9 10 9 3 5 3 3 3 4 9 16 20 19 19 20 20 20 24 20 19 18 17 18
31 26 15 12 11 12 12 14 15 11 7 8 9 10 11 11 6 5 2 2 3 5 7 8 5 6 1 4 3 4 12 19 15 13 10 8 13 5 13 16 11 12 13 16 20
31 27 17 10 9 11 12 15 15 6 8 7 10 13 12 7 5 6 6 5 6 8 10 11 9 4 4 6 2 9 10 12 6 5 11 3 9 8 10 13 20 14 15 13 14
31 28 17 10 6 11 13 14 9 6 7 8 8 8 6 8 8 9 11 12 10 11 11 11 11 7 4 4 4 7 4 11 10 14 7 8 21 10 18 6 12 19 17 15 19
31 27 15 9 6 9 15 11 5 8 7 6 4 5 4 11 11 14 13 11 13 14 13 12 10 5 3 7 11 5 14 20 21 7 14 11 20 15 19 24 22 19 20 18 19
31 23 13 8 6 11 15 7 5 8 4 5 6 2 6 11 9 15 17 12 8 11 5 2 1 6 6 8 16 23 23 22 24 21 21 24 26 23 28 22 22 22 21 19 18
29 18 14 8 9 12 15 6 3 2 8 3 2 2 7 14 6 13 16 15 12 2 4 4 6 14 19 12 14 16 20 25 26 22 25 24 26 25 25 26 23 25 23 23 22
23 16 13 8 10 12 15 10 9 4 4 6 5 7 11 11 2 9 17 11 5 6 8 9 13 11 6 14 16 16 20 26 24 18 17 22 29 27 21 27 29 31 30 27 24
17 14 14 7 11 11 14 13 10 5 1 3 1 6 10 10 1 4 10 11 9 9 12 10 13 12 12 19 19 14 16 18 19 19 17 20 31 23 21 23 25 28 29 28 27
12 12 14 9 5 13 12 15 7 2 1 4 1 0 9 11 2 3 7 7 8 10 7 7 5 10 17 19 11 13 6 10 17 16 13 9 17 18 20 20 17 21 22 24 24
10 7 11 12 7 12 14 12 2 2 2 5 1 1 14 6 9 4 11 7 11 15 4 6 11 19 19 11 9 12 11 16 17 18 17 19 11 10 10 15 18 15 16 16 18
11 4 8 12 11 12 13 4 4 1 2 2 2 8 11 11 3 6 8 10 9 4 6 14 17 10 9 13 12 9 14 21 14 8 8 18 16 12 8 8 9 3 4 3 7
6 6 8 12 14 11 12 0 2 2 3 2 5 9 10 4 4 6 13 12 6 5 11 18 3 7 6 12 14 8 13 6 3 3 6 3 9 14 20 20 14 13 15 6 3
5 2 5 11 12 13 12 2 2 3 3 6 6 15 5 7 7 9 7 11 2 3 6 9 15 7 3 20 16 21 8 5 6 5 12 12 9 5 9 13 16 17 10 1 5
8 5 4 10 12 12 6 2 1 1 3 7 12 3 2 4 7 7 10 7 3 5 5 10 12 23 20 13 3 2 6 2 6 12 8 6 9 16 8 7 3 9 7 5 7
10 2 4 10 13 7 3 1 2 2 7 4 5 2 6 11 5 10 5 4 3 5 4 5 18 8 7 18 9 12 1 4 4 5 6 6 11 11 17 13 2 5 9 9 9
9 2 9 11 7 6 3 2 4 6 5 3 5 8 6 6 7 8 6 10 4 8 2 10 4 12 17 8 16 6 3 5 4 5 6 11 8 6 14 12 8 10 6 6 9
8 2 13 12 5 4 2 6 7 5 6 5 4 5 2 10 5 6 6 4 13 6 11 3 4 12 21 22 12 15 15 10 6 7 8 9 13 17 18 15 7 5 6 8 11
9 6 10 8 4 3 4 4 5 5 8 5 5 4 6 3 6 5 14 5 24 12 6 7 3 9 10 3 2 9 11 14 14 13 23 15 14 3 9 12 14 14 17 18 17
8 4 7 10 8 3 3 3 6 7 7 5 11 6 7 6 8 11 23 9 9 19 29 17 6 13 12 22 21 21 26 24 17 9 18 20 30 24 25 27 26 35 32 29 29
8 3 3 4 3 5 2 2 5 5 6 15 3 6 11 8 22 17 8 22 22 21 3 4 9 16 19 22 24 28 29 29 21 23 18 27 29 27 26 24 21 28 33 36 36
5 6 7 8 5 4 1 2 5 4 8 13 16 12 18 18 17 25 20 20 11 8 6 6 7 15 21 22 23 28 24 18 18 19 19 26 27 25 21 21 23 33 40 40 39
7 5 3 4 3 4 2 0 7 17 9 5 18 22 17 18 20 33 39 38 26 22 16 6 4 8 19 19 25 14 6 4 9 14 15 18 27 23 25 24 25 30 34 35 34
Wind_Direction
21 19 16 13 10 10 12 14 16 18 17 16 14 32 76 85 72 59 61 73 65 58 55 33 28 67 79 76 76 101 175 184 201 200 273 331 331 317 302 262 276 247 284 300 310
20 19 17 15 17 17 13 12 15 15 13 10 358 24 89 110 68 54 55 71 64 58 48 42 44 60 59 41 36 35 263 186 269 308 295 313 309 313 306 289 270 270 270 268 287
19 18 20 19 20 19 14 12 16 9 10 9 13 65 89 136 79 45 62 66 58 52 53 49 32 75 70 56 30 39 281 238 287 237 272 301 291 294 285 276 289 292 276 274 279
18 15 16 19 19 16 13 16 21 7 11 16 42 84 88 131 78 60 76 77 61 47 43 39 42 60 83 34 268 282 299 271 280 296 289 281 285 275 272 273 280 288 282 286 263
14 12 11 14 18 22 21 15 5 4 18 29 63 93 97 87 100 93 96 68 51 38 26 21 37 58 6 333 306 208 288 284 286 282 285 274 261 259 268 273 277 278 274 267 259
10 9 7 10 17 18 17 7 357 5 20 46 71 97 102 93 99 96 103 34 4 358 354 4 354 341 263 299 282 274 293 292 289 284 268 278 290 251 252 270 294 285 287 274 266
5 4 4 7 13 6 359 354 354 47 47 92 96 97 89 80 55 15 345 317 314 312 318 326 324 318 313 282 246 294 299 311 225 292 313 274 269 239 271 295 294 276 290 283 288
2 1 2 8 11 4 360 358 31 65 70 108 108 101 89 53 29 1 345 328 319 306 305 314 316 299 238 282 271 301 274 307 302 302 273 309 284 263 294 278 282 286 286 291 293
359 1 8 19 28 12 360 6 76 58 80 112 94 84 56 16 2 20 3 314 303 304 303 298 299 280 258 276 285 271 289 298 302 283 296 271 292 285 281 282 283 276 285 285 288
360 6 24 35 35 13 3 20 108 56 98 74 56 100 34 359 30 28 15 15 357 328 322 330 10 276 255 265 289 300 294 290 285 294 285 282 280 282 278 271 267 272 272 274 277
0 14 21 42 38 20 17 30 27 34 41 32 11 55 358 356 50 19 11 353 347 352 341 344 276 275 303 325 300 295 290 285 284 285 287 282 279 278 279 274 266 268 264 263 264
4 15 18 50 40 25 33 64 38 350 322 28 65 67 18 348 337 353 8 7 340 316 318 301 283 316 292 316 303 293 291 284 284 288 280 284 276 278 276 271 269 265 262 254 254
12 28 30 63 39 34 33 32 9 356 332 344 98 35 13 348 318 303 4 354 335 315 322 284 282 312 311 314 304 303 289 294 296 307 281 279 276 276 273 264 264 258 252 250 243
20 43 36 30 33 21 9 351 341 351 56 357 258 339 353 359 225 338 337 343 336 318 320 287 286 293 307 303 292 294 302 298 302 306 298 335 287 290 286 276 262 252 245 240 234
10 41 26 21 15 7 350 352 107 144 272 351 314 354 349 359 299 270 328 311 310 307 219 293 300 306 307 293 309 289 302 307 299 283 291 262 263 278 287 277 272 268 259 242 240
11 31 10 8 1 350 352 20 118 206 247 12 300 335 332 327 276 284 319 308 308 266 240 274 291 290 277 308 294 293 306 304 289 277 257 277 244 287 293 280 302 325 23 285 243
16 51 12 7 8 0 353 287 302 222 2 333 332 322 324 294 304 308 323 319 316 313 315 322 295 279 283 306 310 278 322 302 256 218 264 329 308 259 279 279 279 293 323 336 289
346 212 358 16 7 355 347 50 253 37 316 337 316 310 287 3 330 325 306 319 257 231 305 330 323 346 248 308 293 288 266 272 297 290 301 294 263 266 278 295 292 295 294 95 20
357 230 321 348 358 350 347 52 339 296 339 316 308 264 259 339 319 330 317 293 255 186 338 321 295 310 295 295 277 313 220 295 271 257 268 241 267 286 309 281 333 36 52 82 53
5 227 10 350 344 346 62 323 295 315 349 302 284 249 290 329 315 339 309 246 255 201 229 305 303 314 321 305 292 241 124 258 209 274 259 259 273 275 289 284 19 42 68 57 35
9 99 5 354 6 55 63 304 290 308 322 275 279 287 292 336 311 306 268 288 247 337 236 309 231 291 309 283 302 272 230 232 275 239 277 281 271 267 276 276 302 344 87 346 334
18 51 355 358 50 44 39 322 313 314 338 299 286 284 320 324 296 283 256 271 307 335 319 324 277 287 289 287 300 258 263 259 255 263 248 280 271 268 269 276 299 326 333 332 314
1 338 4 25 68 20 332 305 285 315 338 332 320 358 320 299 321 256 292 309 305 297 324 325 255 296 294 239 162 259 281 289 271 266 265 273 259 299 275 296 268 284 295 297 298
2 357 12 57 94 70 352 305 316 307 306 349 311 306 333 287 292 286 297 302 327 308 302 295 221 251 273 282 295 290 285 288 272 261 279 266 280 279 272 273 277 279 287 288 286
22 44 13 326 1 339 190 263 293 337 345 319 283 290 340 305 308 279 303 300 296 302 303 276 260 269 271 282 288 280 281 287 277 268 264 276 279 283 283 284 283 282 284 283 281
32 4 343 299 300 298 255 204 293 332 321 300 282 321 322 299 279 294 300 290 293 295 288 270 276 295 288 289 288 291 287 282 275 278 273 271 274 277 291 295 278 278 283 275 272
28 357 329 283 306 300 254 122 306 316 291 305 314 311 294 289 298 291 284 281 271 274 283 265 264 300 294 314 310 288 255 223 268 264 266 277 286 302 289 288 285 283 270 266 267